This is the latest recevied weather packets stored in our database for station/object K5OLV. If no packets are shown the sender has not sent any weather packets the latest 10 day(s).
| Time | Temp. | Humidity | Pressure | Rain* | Wind** | Luminosity | Snow |
|---|---|---|---|---|---|---|---|
| 1788354887 | 25° C | 84% | 1019.2 hPa | 0 mm | - | 212 W/m² | - |
| 1788354581 | 24.44° C | 94% | 1019 hPa | 0 mm | - | 201 W/m² | - |
| 1788354277 | 23.89° C | 95% | 1018.9 hPa | 0 mm | - | 91 W/m² | - |
| 1788353972 | 23.89° C | 94% | 1019 hPa | 0 mm | - | 58 W/m² | - |
| 1788353668 | 23.89° C | 95% | 1018.9 hPa | 0 mm | - | 66 W/m² | - |
| 1788353364 | 23.33° C | 95% | 1019 hPa | 0 mm | - | 69 W/m² | - |
| 1788353059 | 22.78° C | 95% | 1019 hPa | 0 mm | - | 53 W/m² | - |
| 1788352754 | 22.78° C | 95% | 1019.1 hPa | 0 mm | - | 50 W/m² | - |
| 1788352451 | 22.78° C | 95% | 1018.9 hPa | 0 mm | - | 47 W/m² | - |
| 1788352149 | 22.78° C | 95% | 1018.9 hPa | 0 mm | - | 44 W/m² | - |
| 1788351845 | 22.78° C | 95% | 1019 hPa | 0 mm | - | 42 W/m² | - |
| 1788351540 | 22.22° C | 95% | 1018.9 hPa | 0 mm | - | 39 W/m² | - |
| 1788351235 | 22.22° C | 95% | 1018.8 hPa | 0 mm | - | 36 W/m² | - |
| 1788350930 | 22.22° C | 95% | 1018.8 hPa | 0 mm | - | 33 W/m² | - |
| 1788350627 | 22.22° C | 94% | 1018.8 hPa | 0 mm | - | 31 W/m² | - |
| 1788350326 | 22.22° C | 94% | 1018.8 hPa | 0 mm | - | 28 W/m² | - |
| 1788350023 | 22.22° C | 94% | 1018.6 hPa | 0 mm | - | 25 W/m² | - |
| 1788349719 | 22.22° C | 94% | 1018.6 hPa | 0 mm | - | 21 W/m² | - |
| 1788349415 | 22.22° C | 94% | 1018.5 hPa | 0 mm | - | 18 W/m² | - |
| 1788349114 | 22.22° C | 94% | 1018.6 hPa | 0 mm | - | 14 W/m² | - |
| 1788348810 | 21.67° C | 94% | 1018.6 hPa | 0 mm | - | 10 W/m² | - |
| 1788348509 | 21.67° C | 94% | 1018.4 hPa | 0 mm | - | 7 W/m² | - |
| 1788348206 | 21.67° C | 94% | 1018.4 hPa | 0 mm | - | 5 W/m² | - |
| 1788347901 | 21.67° C | 94% | 1018.3 hPa | 0 mm | - | 3 W/m² | - |
| 1788347597 | 21.67° C | 94% | 1018.2 hPa | 0 mm | - | 0 W/m² | - |
* Rain latest hour (hover to see other rain measurements)
** Current wind speed in m/s (hover to see current wind gust speed)